Portada
METAR-TAF:

METAR-TAF

Aeroports :

Metropolis Municipal Airport

Metropolis, Illinois, Estats Units d'Amèrica

latitud: 37-11-09N, longitud: 088-45-02W, altitud: 117 m

Observació

L'informe es va fer fa 38 minuts, a les 06:15 UTC
Vent calma
Temperatura 21°C
Humitat 94%
Pressió 1025 hPa
Visibilitat: 6.4 km
Núvols disperses a una alçada de 4600 ft
boirina

METAR: KM30 200615Z AUTO 00000KT 4SM BR SCT046 21/20 A3026 RMK AO2 T02060200

Hora: 01:53 (06:53 UTC)


TAF: manca

Observacions i pronòstics meteorològics de més de 4000 aeroports (METAR i TAF).

Les estacions disponibles són els punts grocs i vermells al mapa.

Posi el ratolí al punt desitjat per veure el nom de l'estació.

Feu clic per veure les observacions i els pronòstics meteorològics.

Per canviar el mapa: feu clic els botons verds amb una creu de color negre per apropar; al botó verd amb un guió per allunyar la imatge; o en les fletxes verdes per a mapes adjacents.


METAR-TAF: